When you browse on this site, cookies collect data to enhance your experience and personalize the content and advertising you see.
Visit our Privacy Policy to learn more. By continuing to use the site, you agree to this use of cookies and data.
  • In Spain
  • List of Countries
  • For 7 days
  • Water Temperature
  • Satellite Maps
  • Weather Map
  • Weather Widgets
  • user-avatar
    Login

    Hourly Weather Hobart

    Today, 19 April, Friday

    Time Temperature Precipitation Wind Pressure Humidity
    00:00 +8°C° 0 mm 1 mps 758 mmHg 88%
    01:00 +7°C° 0 mm 1 mps 758 mmHg 89%
    02:00 +7°C° 0 mm 1 mps 759 mmHg 91%
    03:00 +7°C° 0 mm 1 mps 759 mmHg 92%
    04:00 +6°C° 0 mm 1 mps 759 mmHg 93%
    05:00 +6°C° 0 mm 1 mps 759 mmHg 94%
    06:00 +6°C° 0 mm 1 mps 759 mmHg 94%
    07:00 +6°C° 0 mm 1 mps 759 mmHg 94%
    08:00 +9°C° 0 mm 1 mps 760 mmHg 80%
    09:00 +11°C° 0 mm 1 mps 760 mmHg 66%
    10:00 +14°C° 0 mm 1 mps 760 mmHg 51%
    11:00 +15°C° 0 mm 1 mps 759 mmHg 47%
    12:00 +16°C° 0 mm 1 mps 759 mmHg 42%
    13:00 +18°C° 0 mm 2 mps 758 mmHg 37%
    14:00 +17°C° 0 mm 2 mps 758 mmHg 41%
    15:00 +17°C° 0 mm 2 mps 758 mmHg 44%
    16:00 +17°C° 0 mm 3 mps 757 mmHg 48%
    17:00 +14°C° 0 mm 3 mps 758 mmHg 60%
    18:00 +13°C° 0 mm 2 mps 758 mmHg 73%
    19:00 +10°C° 0 mm 2 mps 758 mmHg 85%
    20:00 +10°C° 0 mm 2 mps 758 mmHg 87%
    21:00 +9°C° 0 mm 2 mps 758 mmHg 90%
    22:00 +9°C° 0 mm 2 mps 758 mmHg 92%
    23:00 +9°C° 0 mm 2 mps 758 mmHg 92%

    Tomorrow, 20 April, Saturday

    Time Temperature Precipitation Wind Pressure Humidity
    00:00 +9°C° 0 mm 2 mps 757 mmHg 92%
    01:00 +9°C° 0 mm 2 mps 757 mmHg 92%
    02:00 +9°C° 0 mm 2 mps 757 mmHg 91%
    03:00 +8°C° 0 mm 2 mps 756 mmHg 90%
    04:00 +8°C° 0 mm 2 mps 756 mmHg 90%
    05:00 +8°C° 0 mm 2 mps 756 mmHg 88%
    06:00 +8°C° 0 mm 2 mps 756 mmHg 87%
    07:00 +8°C° 0 mm 2 mps 756 mmHg 85%
    08:00 +12°C° 0 mm 2 mps 756 mmHg 76%
    09:00 +14°C° 0 mm 3 mps 755 mmHg 68%
    10:00 +18°C° 0 mm 3 mps 755 mmHg 60%
    11:00 +20°C° 0 mm 3 mps 755 mmHg 54%
    12:00 +24°C° 0 mm 3 mps 754 mmHg 49%
    13:00 +26°C° 0 mm 3 mps 754 mmHg 44%
    14:00 +26°C° 0 mm 3 mps 753 mmHg 44%
    15:00 +26°C° 0 mm 3 mps 753 mmHg 45%
    16:00 +26°C° 0 mm 3 mps 752 mmHg 46%
    17:00 +22°C° 0 mm 3 mps 753 mmHg 55%
    18:00 +20°C° 0 mm 3 mps 753 mmHg 65%
    19:00 +18°C° 0 mm 3 mps 753 mmHg 75%
    20:00 +17°C° 0 mm 3 mps 752 mmHg 80%
    21:00 +16°C° 0 mm 3 mps 752 mmHg 85%
    22:00 +14°C° 0 mm 3 mps 752 mmHg 90%
    23:00 +14°C° 0 mm 3 mps 752 mmHg 91%

    Day after tomorrow, 21 April, Sunday

    Time Temperature Precipitation Wind Pressure Humidity
    00:00 +14°C° 0 mm 3 mps 751 mmHg 92%
    01:00 +14°C° 0 mm 3 mps 751 mmHg 92%
    02:00 +14°C° 0 mm 3 mps 750 mmHg 92%
    03:00 +14°C° 0 mm 3 mps 750 mmHg 92%
    04:00 +14°C° 0 mm 3 mps 749 mmHg 92%
    05:00 +14°C° 0 mm 3 mps 749 mmHg 91%
    06:00 +14°C° 0 mm 3 mps 749 mmHg 90%
    07:00 +14°C° 0 mm 3 mps 748 mmHg 89%
    08:00 +18°C° 0 mm 4 mps 748 mmHg 76%
    09:00 +21°C° 0 mm 4 mps 748 mmHg 64%
    10:00 +23°C° 0 mm 5 mps 748 mmHg 51%
    11:00 +25°C° 0 mm 5 mps 748 mmHg 49%
    12:00 +26°C° 0 mm 5 mps 747 mmHg 46%
    13:00 +27°C° 0 mm 5 mps 747 mmHg 44%
    14:00 +25°C° 0 mm 5 mps 747 mmHg 48%
    15:00 +23°C° 0 mm 5 mps 748 mmHg 53%
    16:00 +22°C° 0 mm 4 mps 748 mmHg 57%
    17:00 +19°C° 0.1 mm 4 mps 749 mmHg 62%
    18:00 +17°C° 0.1 mm 4 mps 749 mmHg 68%
    19:00 +14°C° 0.1 mm 3 mps 750 mmHg 73%
    20:00 +13°C° 0 mm 3 mps 751 mmHg 76%
    21:00 +12°C° 0 mm 2 mps 751 mmHg 79%
    22:00 +11°C° 0 mm 1 mps 752 mmHg 83%
    23:00 +11°C° 0 mm 1 mps 752 mmHg 84%

    22 April, Monday

    Time Temperature Precipitation Wind Pressure Humidity
    00:00 +9°C° 0 mm 2 mps 753 mmHg 86%
    01:00 +9°C° 0 mm 2 mps 753 mmHg 87%
    02:00 +9°C° 0 mm 2 mps 753 mmHg 86%
    03:00 +9°C° 0 mm 2 mps 753 mmHg 85%
    04:00 +9°C° 0 mm 2 mps 753 mmHg 84%
    05:00 +9°C° 0 mm 2 mps 754 mmHg 86%
    06:00 +9°C° 0 mm 1 mps 754 mmHg 87%
    07:00 +9°C° 0 mm 1 mps 755 mmHg 88%
    08:00 +11°C° 0 mm 1 mps 755 mmHg 78%
    09:00 +13°C° 0 mm 1 mps 755 mmHg 67%
    10:00 +15°C° 0 mm 1 mps 756 mmHg 56%
    11:00 +16°C° 0 mm 1 mps 755 mmHg 52%
    12:00 +18°C° 0 mm 1 mps 755 mmHg 48%
    13:00 +19°C° 0 mm 1 mps 755 mmHg 44%
    14:00 +18°C° 0 mm 1 mps 755 mmHg 46%
    15:00 +18°C° 0 mm 1 mps 755 mmHg 47%
    16:00 +17°C° 0 mm 2 mps 755 mmHg 48%
    17:00 +15°C° 0 mm 1 mps 756 mmHg 57%
    18:00 +13°C° 0 mm 1 mps 756 mmHg 66%
    19:00 +11°C° 0 mm 1 mps 756 mmHg 75%
    20:00 +11°C° 0 mm 1 mps 757 mmHg 78%
    21:00 +10°C° 0 mm 1 mps 757 mmHg 82%
    22:00 +9°C° 0 mm 1 mps 757 mmHg 85%
    23:00 +9°C° 0 mm 1 mps 757 mmHg 86%

    23 April, Tuesday

    Time Temperature Precipitation Wind Pressure Humidity
    00:00 +9°C° 0 mm 1 mps 757 mmHg 88%
    01:00 +8°C° 0 mm 1 mps 756 mmHg 89%
    02:00 +8°C° 0 mm 1 mps 756 mmHg 89%
    03:00 +8°C° 0 mm 1 mps 756 mmHg 89%
    04:00 +8°C° 0 mm 1 mps 756 mmHg 90%
    05:00 +7°C° 0 mm 1 mps 756 mmHg 89%
    06:00 +7°C° 0 mm 1 mps 756 mmHg 89%
    07:00 +7°C° 0 mm 1 mps 756 mmHg 88%
    08:00 +10°C° 0 mm 1 mps 756 mmHg 75%
    09:00 +13°C° 0 mm 1 mps 756 mmHg 63%
    10:00 +15°C° 0 mm 1 mps 756 mmHg 50%
    11:00 +18°C° 0 mm 1 mps 755 mmHg 46%
    12:00 +20°C° 0 mm 1 mps 754 mmHg 41%
    13:00 +19°C° 0 mm 0 mps 754 mmHg 37%
    14:00 +21°C° 0 mm 1 mps 753 mmHg 39%
    15:00 +21°C° 0 mm 1 mps 753 mmHg 41%
    16:00 +20°C° 0 mm 1 mps 752 mmHg 43%
    17:00 +18°C° 0 mm 1 mps 752 mmHg 54%
    18:00 +15°C° 0 mm 1 mps 752 mmHg 65%
    19:00 +12°C° 0 mm 1 mps 752 mmHg 76%
    20:00 +12°C° 0 mm 1 mps 752 mmHg 80%
    21:00 +11°C° 0 mm 1 mps 752 mmHg 83%
    22:00 +10°C° 0 mm 2 mps 752 mmHg 87%
    23:00 +10°C° 0 mm 2 mps 751 mmHg 87%

    24 April, Wednesday

    Time Temperature Precipitation Wind Pressure Humidity
    00:00 +10°C° 0 mm 2 mps 751 mmHg 87%
    01:00 +10°C° 0 mm 3 mps 750 mmHg 87%
    02:00 +10°C° 0 mm 3 mps 750 mmHg 85%
    03:00 +11°C° 0 mm 3 mps 750 mmHg 84%
    04:00 +12°C° 0 mm 2 mps 749 mmHg 82%
    05:00 +12°C° 0 mm 2 mps 749 mmHg 83%
    06:00 +12°C° 0 mm 2 mps 750 mmHg 84%
    07:00 +13°C° 0 mm 2 mps 750 mmHg 84%
    08:00 +13°C° 0.6 mm 2 mps 750 mmHg 84%
    09:00 +14°C° 0.6 mm 2 mps 750 mmHg 84%
    10:00 +14°C° 0.6 mm 2 mps 750 mmHg 84%
    11:00 +14°C° 0.3 mm 2 mps 750 mmHg 79%
    12:00 +14°C° 0.3 mm 2 mps 750 mmHg 74%
    13:00 +13°C° 0.3 mm 3 mps 750 mmHg 69%
    14:00 +13°C° 0 mm 3 mps 750 mmHg 64%
    15:00 +13°C° 0 mm 3 mps 750 mmHg 58%
    16:00 +13°C° 0 mm 4 mps 749 mmHg 53%
    17:00 +11°C° 0 mm 4 mps 750 mmHg 59%
    18:00 +10°C° 0 mm 3 mps 750 mmHg 65%
    19:00 +9°C° 0 mm 3 mps 750 mmHg 72%
    20:00 +9°C° 0 mm 3 mps 750 mmHg 72%
    21:00 +8°C° 0 mm 4 mps 750 mmHg 73%
    22:00 +8°C° 0 mm 4 mps 750 mmHg 74%
    23:00 +8°C° 0 mm 4 mps 750 mmHg 74%
    Show more